Location: Walton
(43.6794°N, 81.3017°W)
Time: 02:31:49
(UTC+00:00)

Cosmos 1726 Rocket - Pass Details

Date: 09 December 2025
Orbit: 553 x 663 km, 82.5° (Epoch: 12 January)

Event Time Altitude Azimuth Distance (km) Brightness Sun altitude
Exits shadow 10:14:20 35° 31° (NNE) 983 4.7 -26.7°
Maximum altitude 10:15:38 46° 77° (ENE) 804 4.4 -26.5°
Drops below altitude 10° 10:19:39 10° 152° (SSE) 1,894 6.5 -25.8°
Sets 10:21:52 0° 158° (SSE) 2,773 7.3 -25.4°
